Location: Croagnes
(43.9363°N, 5.3265°E)
Time: 10:23:45
(UTC+00:00)

Envisat - Visible Passes

Search period start: 30 July 2021 00:00
Search period end: 09 August 2021 00:00
Orbit: 764 x 766 km, 98.2° (Epoch: 29 July)

Date Brightness Start Highest point End Pass type
(mag) Time Alt. Az. Time Alt. Az. Time Alt. Az.
31 Jul 5.7 03:44:42 10° NE 03:47:50 16° E 03:50:58 10° SE visible
03 Aug 5.9 03:34:00 10° ENE 03:36:12 13° E 03:38:25 10° ESE visible
08 Aug 5.7 03:46:52 10° NE 03:50:15 18° E 03:53:37 10° SE visible
